Flag for Canada Weather past 2 weeks in Timmins, Ontario, Canada

Now
52 °F

Cloudy.


Feels Like: 47 °F
Forecast: 48 / 66 °F
Wind: 13 mph from Northwest

Location: Timmins

Current Time: Jul 7, 2015 at 9:54:32 AM

Latest Report: Jul 7, 2015 at 9:00 AM


Visibility: 15 mi

Pressure: 29.83 "Hg

Humidity: 94%

Dew point: 50 °F

Location of TimminsLocation

Historic Weather in Timmins — Graph

°F

Timmins temperature yesterday

Maximum temperature yesterday: 81 °F (at 3:00 PM)
Minimum temperature yesterday: 63 °F (at 4:00 AM)
Average temperature yesterday: 71 °F

Past Weeks' High & Low Weather Summary

 TemperatureHumidityPressure
High82 °F (Jun 29, 4:00 PM)100% (Jun 23, 1:00 AM)30.11 "Hg (Jun 23, 1:00 AM)
Low37 °F (Jul 2, 5:00 AM)27% (Jun 25, 5:00 PM)29.47 "Hg (Jun 23, 4:00 AM)
Average61 °F74%29.90 "Hg
* Reported Jun 22 9:00 AM — Jul 7 9:00 AM, Timmins, Weather by CustomWeather, © 2015

Note: Actual official high and low records may vary slightly from our data, if they occured in-between our weather recording intervals... More about our weather records

Advertising

Timmins weather history for previous 24 hours

 ConditionsComfort  
Time TempWeatherWind HumidityBarometerVisibility
9:00 AM
Tue, Jul 7
52 °FCloudy.13 mph94%29.83 "Hg15 mi
8:00 AM52 °FLight rain. Mostly cloudy.16 mph94%29.81 "Hg12 mi
7:00 AM52 °FLight rain. Mostly cloudy.12 mph94%29.80 "Hg10 mi
6:51 AM52 °FLight rain. Mostly cloudy.12 mph94%29.80 "Hg10 mi
6:00 AM52 °FLight rain. Mostly cloudy.12 mph100%29.77 "Hg10 mi
5:00 AM55 °FLight rain. Mostly cloudy.9 mph94%29.74 "Hg10 mi
4:00 AM59 °FLight rain. Fog.17 mphN/A29.70 "Hg5 mi
3:00 AM63 °FLight rain. Overcast.14 mph94%29.67 "Hg10 mi
2:00 AM63 °FLight rain. Overcast.8 mph100%29.67 "Hg10 mi
1:00 AM64 °FLight rain. Overcast.7 mph94%29.68 "Hg10 mi
12:00 AM64 °FLight rain. Mostly cloudy.2 mph94%29.73 "Hg10 mi
11:00 PM
Mon, Jul 6
68 °FLight rain. Overcast.5 mph88%29.77 "Hg10 mi
10:00 PM68 °FLight rain. Mostly cloudy.No wind94%29.77 "Hg10 mi
9:00 PM72 °FMostly cloudy.3 mph83%29.78 "Hg15 mi
8:00 PM75 °FCloudy.3 mph65%29.78 "Hg12 mi
7:00 PM77 °FBroken clouds.5 mph61%29.78 "Hg12 mi
6:00 PM79 °FBroken clouds.8 mph61%29.79 "Hg12 mi
5:00 PM79 °FMore clouds than sun.9 mph61%29.80 "Hg12 mi
4:00 PM81 °FMore clouds than sun.12 mph58%29.80 "Hg12 mi
3:00 PM81 °FBroken clouds.9 mph58%29.82 "Hg12 mi
2:00 PM79 °FPartly sunny.8 mph61%29.83 "Hg12 mi
1:00 PM77 °FOvercast.7 mph69%29.85 "Hg10 mi
12:00 PM75 °FMostly cloudy.10 mph69%29.86 "Hg10 mi
11:00 AM77 °FCloudy.10 mph65%29.85 "Hg10 mi
10:00 AM73 °FCloudy.13 mph69%29.86 "Hg10 mi
9:00 AM70 °FBroken clouds.13 mph73%29.86 "Hg15 mi
Weather by CustomWeather, © 2015

See weather overviewHow to use our weather pages